User: anonymous   Login
Location: Voyageurs National Park
(48.5020°N, 92.9292°W)
Time: 18:54:36
(UTC-05:00)
Language:

Terra - Orbit

View from above orbital plane
View from above orbital plane
View from above satellite
View from above satellite

Ground track
Ground track

The orbit data is extracted from the following two-line orbital elements,

1 25994U 99068A   15090.48406888  .00000693  00000-0  16382-3 0  9993
2 25994 098.2162 166.1042 0001573 104.8399 255.2973 14.57111620812900
Epoch (UTC): 31 March 2015 11:37:03
Eccentricity: 0.0001573
inclination: 98.2162°
perigee height: 701 km
apogee height: 703 km
right ascension of ascending node: 166.1042°
argument of perigee: 104.8399°
revolutions per day: 14.57111620
mean anomaly at epoch: 255.2973°
orbit number at epoch: 81290

The dashed part of the orbit path shows where the satellite is in the earth's shadow,  

DLR